Year,Month,Day,Hour,Minute,Value (Times are PST for temperature in C)
2012,03,30,00,00,4.10
2012,03,30,00,01,4.10
2012,03,30,00,02,4.20
2012,03,30,00,03,4.20
2012,03,30,00,04,4.20
2012,03,30,00,05,4.20
2012,03,30,00,06,4.20
2012,03,30,00,07,4.20
2012,03,30,00,08,4.20
2012,03,30,00,09,4.20
2012,03,30,00,10,4.20
2012,03,30,00,11,4.30
2012,03,30,00,12,4.20
2012,03,30,00,13,4.20
2012,03,30,00,14,4.20
2012,03,30,00,15,4.20
2012,03,30,00,16,4.20
2012,03,30,00,17,4.20
2012,03,30,00,18,4.20
2012,03,30,00,19,4.20
2012,03,30,00,20,4.20
2012,03,30,00,21,4.20
2012,03,30,00,22,4.20
2012,03,30,00,23,4.20
2012,03,30,00,24,4.10
2012,03,30,00,25,4.10
2012,03,30,00,26,4.10
2012,03,30,00,27,4.10
2012,03,30,00,28,4.10
2012,03,30,00,29,4.10
2012,03,30,00,30,4.10
2012,03,30,00,31,4.10
2012,03,30,00,32,4.00
2012,03,30,00,33,4.00
2012,03,30,00,34,4.00
2012,03,30,00,35,4.00
2012,03,30,00,36,4.00
2012,03,30,00,37,4.00
2012,03,30,00,38,3.90
2012,03,30,00,39,3.90
2012,03,30,00,40,3.90
2012,03,30,00,41,3.90
2012,03,30,00,42,3.90
2012,03,30,00,43,3.90
2012,03,30,00,44,3.90
2012,03,30,00,45,3.90
2012,03,30,00,46,3.90
2012,03,30,00,47,3.90
2012,03,30,00,48,3.90
2012,03,30,00,49,3.90
2012,03,30,00,50,3.90
2012,03,30,00,51,3.90
2012,03,30,00,52,3.80
2012,03,30,00,53,3.80
2012,03,30,00,54,3.80
2012,03,30,00,55,3.80
2012,03,30,00,56,3.70
2012,03,30,00,57,3.70
2012,03,30,00,58,3.70
2012,03,30,00,59,3.70
2012,03,30,01,00,3.70
2012,03,30,01,01,3.70
2012,03,30,01,02,3.70
2012,03,30,01,03,3.70
2012,03,30,01,04,3.70
2012,03,30,01,05,3.60
2012,03,30,01,06,3.60
2012,03,30,01,07,3.60
2012,03,30,01,08,3.60
2012,03,30,01,09,3.60
2012,03,30,01,10,3.60
2012,03,30,01,11,3.60
2012,03,30,01,12,3.60
2012,03,30,01,13,3.60
2012,03,30,01,14,3.60
2012,03,30,01,15,3.60
2012,03,30,01,16,3.60
2012,03,30,01,17,3.60
2012,03,30,01,18,3.60
2012,03,30,01,19,3.60
2012,03,30,01,20,3.60
2012,03,30,01,21,3.60
2012,03,30,01,22,3.60
2012,03,30,01,23,3.60
2012,03,30,01,24,3.60
2012,03,30,01,25,3.60
2012,03,30,01,26,3.60
2012,03,30,01,27,3.60
2012,03,30,01,28,3.60
2012,03,30,01,29,3.60
2012,03,30,01,30,3.60
2012,03,30,01,31,3.60
2012,03,30,01,32,3.60
2012,03,30,01,33,3.60
2012,03,30,01,34,3.60
2012,03,30,01,35,3.60
2012,03,30,01,36,3.50
2012,03,30,01,37,3.50
2012,03,30,01,38,3.60
2012,03,30,01,39,3.50
2012,03,30,01,40,3.50
2012,03,30,01,41,3.50
2012,03,30,01,42,3.50
2012,03,30,01,43,3.50
2012,03,30,01,44,3.50
2012,03,30,01,45,3.50
2012,03,30,01,46,3.50
2012,03,30,01,47,3.50
2012,03,30,01,48,3.50
2012,03,30,01,49,3.50
2012,03,30,01,50,3.50
2012,03,30,01,51,3.50
2012,03,30,01,52,3.50
2012,03,30,01,53,3.50
2012,03,30,01,54,3.40
2012,03,30,01,55,3.50
2012,03,30,01,56,3.50
2012,03,30,01,57,3.50
2012,03,30,01,58,3.50
2012,03,30,01,59,3.50
2012,03,30,02,00,3.50
2012,03,30,02,01,3.50
2012,03,30,02,02,3.50
2012,03,30,02,03,3.50
2012,03,30,02,04,3.50
2012,03,30,02,05,3.50
2012,03,30,02,06,3.50
2012,03,30,02,07,3.50
2012,03,30,02,08,3.50
2012,03,30,02,09,3.50
2012,03,30,02,10,3.50
2012,03,30,02,11,3.50
2012,03,30,02,12,3.50
2012,03,30,02,13,3.50
2012,03,30,02,14,3.50
2012,03,30,02,15,3.50
2012,03,30,02,16,3.50
2012,03,30,02,17,3.50
2012,03,30,02,18,3.50
2012,03,30,02,19,3.50
2012,03,30,02,20,3.50
2012,03,30,02,21,3.40
2012,03,30,02,22,3.40
2012,03,30,02,23,3.40
2012,03,30,02,24,3.40
2012,03,30,02,25,3.40
2012,03,30,02,26,3.40
2012,03,30,02,27,3.40
2012,03,30,02,28,3.40
2012,03,30,02,29,3.40
2012,03,30,02,30,3.40
2012,03,30,02,31,3.40
2012,03,30,02,32,3.40
2012,03,30,02,33,3.40
2012,03,30,02,34,3.40
2012,03,30,02,35,3.40
2012,03,30,02,36,3.40
2012,03,30,02,37,3.40
2012,03,30,02,38,3.30
2012,03,30,02,39,3.40
2012,03,30,02,40,3.30
2012,03,30,02,41,3.30
2012,03,30,02,42,3.30
2012,03,30,02,43,3.30
2012,03,30,02,44,3.30
2012,03,30,02,45,3.30
2012,03,30,02,46,3.30
2012,03,30,02,47,3.30
2012,03,30,02,48,3.30
2012,03,30,02,49,3.30
2012,03,30,02,50,3.30
2012,03,30,02,51,3.30
2012,03,30,02,52,3.30
2012,03,30,02,53,3.30
2012,03,30,02,54,3.30
2012,03,30,02,55,3.30
2012,03,30,02,56,3.30
2012,03,30,02,57,3.20
2012,03,30,02,58,3.20
2012,03,30,02,59,3.20
2012,03,30,03,00,3.20
2012,03,30,03,01,3.20
2012,03,30,03,02,3.20
2012,03,30,03,03,3.20
2012,03,30,03,04,3.20
2012,03,30,03,05,3.20
2012,03,30,03,06,3.20
2012,03,30,03,07,3.20
2012,03,30,03,08,3.20
2012,03,30,03,09,3.20
2012,03,30,03,10,3.20
2012,03,30,03,11,3.20
2012,03,30,03,12,3.20
2012,03,30,03,13,3.20
2012,03,30,03,14,3.20
2012,03,30,03,15,3.20
2012,03,30,03,16,3.20
2012,03,30,03,17,3.20
2012,03,30,03,18,3.20
2012,03,30,03,19,3.10
2012,03,30,03,20,3.10
2012,03,30,03,21,3.10
2012,03,30,03,22,3.10
2012,03,30,03,23,3.20
2012,03,30,03,24,3.20
2012,03,30,03,25,3.20
2012,03,30,03,26,3.20
2012,03,30,03,27,3.20
2012,03,30,03,28,3.20
2012,03,30,03,29,3.20
2012,03,30,03,30,3.20
2012,03,30,03,31,3.20
2012,03,30,03,32,3.20
2012,03,30,03,33,3.20
2012,03,30,03,34,3.30
2012,03,30,03,35,3.30
2012,03,30,03,36,3.40
2012,03,30,03,37,3.40
2012,03,30,03,38,3.40
2012,03,30,03,39,3.50
2012,03,30,03,40,3.50
2012,03,30,03,41,3.60
2012,03,30,03,42,3.60
2012,03,30,03,43,3.60
2012,03,30,03,44,3.60
2012,03,30,03,45,3.60
2012,03,30,03,46,3.60
2012,03,30,03,47,3.50
2012,03,30,03,48,3.50
2012,03,30,03,49,3.50
2012,03,30,03,50,3.50
2012,03,30,03,51,3.50
2012,03,30,03,52,3.50
2012,03,30,03,53,3.50
2012,03,30,03,54,3.50
2012,03,30,03,55,3.40
2012,03,30,03,56,3.40
2012,03,30,03,57,3.40
2012,03,30,03,58,3.40
2012,03,30,03,59,3.40
2012,03,30,04,00,3.30
2012,03,30,04,01,3.30
2012,03,30,04,02,3.30
2012,03,30,04,03,3.30
2012,03,30,04,04,3.30
2012,03,30,04,05,3.30
2012,03,30,04,06,3.30
2012,03,30,04,07,3.30
2012,03,30,04,08,3.30
2012,03,30,04,09,3.30
2012,03,30,04,10,3.30
2012,03,30,04,11,3.20
2012,03,30,04,12,3.20
2012,03,30,04,13,3.20
2012,03,30,04,14,3.20
2012,03,30,04,15,3.20
2012,03,30,04,16,3.20
2012,03,30,04,17,3.20
2012,03,30,04,18,3.20
2012,03,30,04,19,3.20
2012,03,30,04,20,3.20
2012,03,30,04,21,3.20
2012,03,30,04,22,3.20
2012,03,30,04,23,3.20
2012,03,30,04,24,3.20
2012,03,30,04,25,3.20
2012,03,30,04,26,3.20
2012,03,30,04,27,3.20
2012,03,30,04,28,3.20
2012,03,30,04,29,3.10
2012,03,30,04,30,3.10
2012,03,30,04,31,3.10
2012,03,30,04,32,3.10
2012,03,30,04,33,3.10
2012,03,30,04,34,3.10
2012,03,30,04,35,3.10
2012,03,30,04,36,3.10
2012,03,30,04,37,3.10
2012,03,30,04,38,3.10
2012,03,30,04,39,3.10
2012,03,30,04,40,3.10
2012,03,30,04,41,3.10
2012,03,30,04,42,3.10
2012,03,30,04,43,3.10
2012,03,30,04,44,3.10
2012,03,30,04,45,3.00
2012,03,30,04,46,3.00
2012,03,30,04,47,3.00
2012,03,30,04,48,3.00
2012,03,30,04,49,3.00
2012,03,30,04,50,3.00
2012,03,30,04,51,2.90
2012,03,30,04,52,2.90
2012,03,30,04,53,2.90
2012,03,30,04,54,2.90
2012,03,30,04,55,2.90
2012,03,30,04,56,2.90
2012,03,30,04,57,2.90
2012,03,30,04,58,2.90
2012,03,30,04,59,2.90
2012,03,30,05,00,2.90
2012,03,30,05,01,2.90
2012,03,30,05,02,2.90
2012,03,30,05,03,2.90
2012,03,30,05,04,2.90
2012,03,30,05,05,2.80
2012,03,30,05,06,2.80
2012,03,30,05,07,2.80
2012,03,30,05,08,2.80
2012,03,30,05,09,2.80
2012,03,30,05,10,2.80
2012,03,30,05,11,2.80
2012,03,30,05,12,2.80
2012,03,30,05,13,2.80
2012,03,30,05,14,2.80
2012,03,30,05,15,2.80
2012,03,30,05,16,2.80
2012,03,30,05,17,2.80
2012,03,30,05,18,2.70
2012,03,30,05,19,2.70
2012,03,30,05,20,2.70
2012,03,30,05,21,2.70
2012,03,30,05,22,2.80
2012,03,30,05,23,2.70
2012,03,30,05,24,2.70
2012,03,30,05,25,2.70
2012,03,30,05,26,2.70
2012,03,30,05,27,2.70
2012,03,30,05,28,2.70
2012,03,30,05,29,2.70
2012,03,30,05,30,2.70
2012,03,30,05,31,2.70
2012,03,30,05,32,2.70
2012,03,30,05,33,2.70
2012,03,30,05,34,2.70
2012,03,30,05,35,2.70
2012,03,30,05,36,2.70
2012,03,30,05,37,2.70
2012,03,30,05,38,2.70
2012,03,30,05,39,2.70
2012,03,30,05,40,2.70
2012,03,30,05,41,2.70
2012,03,30,05,42,2.80
2012,03,30,05,43,2.70
2012,03,30,05,44,2.80
2012,03,30,05,45,2.80
2012,03,30,05,46,2.80
2012,03,30,05,47,2.80
2012,03,30,05,48,2.80
2012,03,30,05,49,2.80
2012,03,30,05,50,2.80
2012,03,30,05,51,2.80
2012,03,30,05,52,2.80
2012,03,30,05,53,2.80
2012,03,30,05,54,2.80
2012,03,30,05,55,2.90
2012,03,30,05,56,2.90
2012,03,30,05,57,2.90
2012,03,30,05,58,2.90
2012,03,30,05,59,2.90
2012,03,30,06,00,2.80
2012,03,30,06,01,2.80
2012,03,30,06,02,2.80
2012,03,30,06,03,2.80
2012,03,30,06,04,2.80
2012,03,30,06,05,2.80
2012,03,30,06,06,2.80
2012,03,30,06,07,2.80
2012,03,30,06,08,2.80
2012,03,30,06,09,2.80
2012,03,30,06,10,2.80
2012,03,30,06,11,2.80
2012,03,30,06,12,2.80
2012,03,30,06,13,2.70
2012,03,30,06,14,2.70
2012,03,30,06,15,2.70
2012,03,30,06,16,2.70
2012,03,30,06,17,2.70
2012,03,30,06,18,2.70
2012,03,30,06,19,2.70
2012,03,30,06,20,2.70
2012,03,30,06,21,2.70
2012,03,30,06,22,2.70
2012,03,30,06,23,2.70
2012,03,30,06,24,2.70
2012,03,30,06,25,2.70
2012,03,30,06,26,2.70
2012,03,30,06,27,2.70
2012,03,30,06,28,2.70
2012,03,30,06,29,2.70
2012,03,30,06,30,2.70
2012,03,30,06,31,2.70
2012,03,30,06,32,2.60
2012,03,30,06,33,2.60
2012,03,30,06,34,2.60
2012,03,30,06,35,2.60
2012,03,30,06,36,2.60
2012,03,30,06,37,2.60
2012,03,30,06,38,2.60
2012,03,30,06,39,2.60
2012,03,30,06,40,2.60
2012,03,30,06,41,2.60
2012,03,30,06,42,2.60
2012,03,30,06,43,2.60
2012,03,30,06,44,2.60
2012,03,30,06,45,2.60
2012,03,30,06,46,2.70
2012,03,30,06,47,2.70
2012,03,30,06,48,2.70
2012,03,30,06,49,2.80
2012,03,30,06,50,2.80
2012,03,30,06,51,2.80
2012,03,30,06,52,2.90
2012,03,30,06,53,2.90
2012,03,30,06,54,2.90
2012,03,30,06,55,2.90
2012,03,30,06,56,2.90
2012,03,30,06,57,2.90
2012,03,30,06,58,2.90
2012,03,30,06,59,2.90
2012,03,30,07,00,2.90
2012,03,30,07,01,2.90
2012,03,30,07,02,2.90
2012,03,30,07,03,2.90
2012,03,30,07,04,2.90
2012,03,30,07,05,2.90
2012,03,30,07,06,2.90
2012,03,30,07,07,2.90
2012,03,30,07,08,3.00
2012,03,30,07,09,3.00
2012,03,30,07,10,3.00
2012,03,30,07,11,3.00
2012,03,30,07,12,3.00
2012,03,30,07,13,3.00
2012,03,30,07,14,3.00
2012,03,30,07,15,3.00
2012,03,30,07,16,3.00
2012,03,30,07,17,3.00
2012,03,30,07,18,3.00
2012,03,30,07,19,3.00
2012,03,30,07,20,3.00
2012,03,30,07,21,3.00
2012,03,30,07,22,3.00
2012,03,30,07,23,3.00
2012,03,30,07,24,3.10
2012,03,30,07,25,3.10
2012,03,30,07,26,3.10
2012,03,30,07,27,3.10
2012,03,30,07,28,3.20
2012,03,30,07,29,3.20
2012,03,30,07,30,3.20
2012,03,30,07,31,3.20
2012,03,30,07,32,3.20
2012,03,30,07,33,3.30
2012,03,30,07,34,3.30
2012,03,30,07,35,3.30
2012,03,30,07,36,3.30
2012,03,30,07,37,3.30
2012,03,30,07,38,3.30
2012,03,30,07,39,3.30
2012,03,30,07,40,3.30
2012,03,30,07,41,3.30
2012,03,30,07,42,3.30
2012,03,30,07,43,3.30
2012,03,30,07,44,3.30
2012,03,30,07,45,3.30
2012,03,30,07,46,3.30
2012,03,30,07,47,3.30
2012,03,30,07,48,3.30
2012,03,30,07,49,3.30
2012,03,30,07,50,3.30
2012,03,30,07,51,3.30
2012,03,30,07,52,3.30
2012,03,30,07,53,3.30
2012,03,30,07,54,3.20
2012,03,30,07,55,3.20
2012,03,30,07,56,3.20
2012,03,30,07,57,3.20
2012,03,30,07,58,3.20
2012,03,30,07,59,3.20
2012,03,30,08,00,3.20
2012,03,30,08,01,3.20
2012,03,30,08,02,3.20
2012,03,30,08,03,3.20
2012,03,30,08,04,3.20
2012,03,30,08,05,3.20
2012,03,30,08,06,3.20
2012,03,30,08,07,3.20
2012,03,30,08,08,3.20
2012,03,30,08,09,3.20
2012,03,30,08,10,3.20
2012,03,30,08,11,3.20
2012,03,30,08,12,3.20
2012,03,30,08,13,3.20
2012,03,30,08,14,3.20
2012,03,30,08,15,3.20
2012,03,30,08,16,3.20
2012,03,30,08,17,3.20
2012,03,30,08,18,3.20
2012,03,30,08,19,3.20
2012,03,30,08,20,3.20
2012,03,30,08,21,3.20
2012,03,30,08,22,3.20
2012,03,30,08,23,3.20
2012,03,30,08,24,3.20
2012,03,30,08,25,3.20
2012,03,30,08,26,3.20
2012,03,30,08,27,3.20
2012,03,30,08,28,3.20
2012,03,30,08,29,3.20
2012,03,30,08,30,3.20
2012,03,30,08,31,3.20
2012,03,30,08,32,3.10
2012,03,30,08,33,3.10
2012,03,30,08,34,3.10
2012,03,30,08,35,3.10
2012,03,30,08,36,3.20
2012,03,30,08,37,3.20
2012,03,30,08,38,3.20
2012,03,30,08,39,3.20
2012,03,30,08,40,3.20
2012,03,30,08,41,3.20
2012,03,30,08,42,3.30
2012,03,30,08,43,3.30
2012,03,30,08,44,3.30
2012,03,30,08,45,3.30
2012,03,30,08,46,3.40
2012,03,30,08,47,3.40
2012,03,30,08,48,3.40
2012,03,30,08,49,3.50
2012,03,30,08,50,3.60
2012,03,30,08,51,3.60
2012,03,30,08,52,3.60
2012,03,30,08,53,3.60
2012,03,30,08,54,3.60
2012,03,30,08,55,3.70
2012,03,30,08,56,3.70
2012,03,30,08,57,3.70
2012,03,30,08,58,3.70
2012,03,30,08,59,3.70
2012,03,30,09,00,3.80
2012,03,30,09,01,3.80
2012,03,30,09,02,3.80
2012,03,30,09,03,3.90
2012,03,30,09,04,4.00
2012,03,30,09,05,4.00
2012,03,30,09,06,4.10
2012,03,30,09,07,4.10
2012,03,30,09,08,4.20
2012,03,30,09,09,4.20
2012,03,30,09,10,4.30
2012,03,30,09,11,4.30
2012,03,30,09,12,4.40
2012,03,30,09,13,4.40
2012,03,30,09,14,4.40
2012,03,30,09,15,4.40
2012,03,30,09,16,4.50
2012,03,30,09,17,4.50
2012,03,30,09,18,4.50
2012,03,30,09,19,4.60
2012,03,30,09,20,4.60
2012,03,30,09,21,4.60
2012,03,30,09,22,4.60
2012,03,30,09,23,4.60
2012,03,30,09,24,4.60
2012,03,30,09,25,4.70
2012,03,30,09,26,4.80
2012,03,30,09,27,4.80
2012,03,30,09,28,4.90
2012,03,30,09,29,5.00
2012,03,30,09,30,5.10
2012,03,30,09,31,5.20
2012,03,30,09,32,5.20
2012,03,30,09,33,5.20
2012,03,30,09,34,5.30
2012,03,30,09,35,5.30
2012,03,30,09,36,5.30
2012,03,30,09,37,5.40
2012,03,30,09,38,5.40
2012,03,30,09,39,5.40
2012,03,30,09,40,5.40
2012,03,30,09,41,5.40
2012,03,30,09,42,5.40
2012,03,30,09,43,5.40
2012,03,30,09,44,5.50
2012,03,30,09,45,5.50
2012,03,30,09,46,5.50
2012,03,30,09,47,5.60
2012,03,30,09,48,5.60
2012,03,30,09,49,5.60
2012,03,30,09,50,5.60
2012,03,30,09,51,5.60
2012,03,30,09,52,5.60
2012,03,30,09,53,5.60
2012,03,30,09,54,5.60
2012,03,30,09,55,5.60
2012,03,30,09,56,5.60
2012,03,30,09,57,5.70
2012,03,30,09,58,5.60
2012,03,30,09,59,5.60
2012,03,30,10,00,5.60
2012,03,30,10,01,5.60
2012,03,30,10,02,5.60
2012,03,30,10,03,5.60
2012,03,30,10,04,5.60
2012,03,30,10,05,5.60
2012,03,30,10,06,5.60
2012,03,30,10,07,5.50
2012,03,30,10,08,5.50
2012,03,30,10,09,5.50
2012,03,30,10,10,5.50
2012,03,30,10,11,5.50
2012,03,30,10,12,5.60
2012,03,30,10,13,5.60
2012,03,30,10,14,5.60
2012,03,30,10,15,5.60
2012,03,30,10,16,5.60
2012,03,30,10,17,5.60
2012,03,30,10,18,5.60
2012,03,30,10,19,5.60
2012,03,30,10,20,5.60
2012,03,30,10,21,5.70
2012,03,30,10,22,5.70
2012,03,30,10,23,5.70
2012,03,30,10,24,5.70
2012,03,30,10,25,5.70
2012,03,30,10,26,5.70
2012,03,30,10,27,5.80
2012,03,30,10,28,5.80
2012,03,30,10,29,5.80
2012,03,30,10,30,5.90
2012,03,30,10,31,5.90
2012,03,30,10,32,5.90
2012,03,30,10,33,5.90
2012,03,30,10,34,5.90
2012,03,30,10,35,6.00
2012,03,30,10,36,6.00
2012,03,30,10,37,6.10
2012,03,30,10,38,6.10
2012,03,30,10,39,6.10
2012,03,30,10,40,6.10
2012,03,30,10,41,6.20
2012,03,30,10,42,6.20
2012,03,30,10,43,6.20
2012,03,30,10,44,6.30
2012,03,30,10,45,6.30
2012,03,30,10,46,6.30
2012,03,30,10,47,6.30
2012,03,30,10,48,6.40
2012,03,30,10,49,6.40
2012,03,30,10,50,6.40
2012,03,30,10,51,6.40
2012,03,30,10,52,6.50
2012,03,30,10,53,6.50
2012,03,30,10,54,6.50
2012,03,30,10,55,6.50
2012,03,30,10,56,6.50
2012,03,30,10,57,6.60
2012,03,30,10,58,6.60
2012,03,30,10,59,6.60
2012,03,30,11,00,6.60
2012,03,30,11,01,6.60
2012,03,30,11,02,6.60
2012,03,30,11,03,6.60
2012,03,30,11,04,6.70
2012,03,30,11,05,6.70
2012,03,30,11,06,6.70
2012,03,30,11,07,6.70
2012,03,30,11,08,6.70
2012,03,30,11,09,6.70
2012,03,30,11,10,6.70
2012,03,30,11,11,6.70
2012,03,30,11,12,6.70
2012,03,30,11,13,6.70
2012,03,30,11,14,6.80
2012,03,30,11,15,6.80
2012,03,30,11,16,6.80
2012,03,30,11,17,6.80
2012,03,30,11,18,6.80
2012,03,30,11,19,6.80
2012,03,30,11,20,6.80
2012,03,30,11,21,6.90
2012,03,30,11,22,6.90
2012,03,30,11,23,6.90
2012,03,30,11,24,6.90
2012,03,30,11,25,6.90
2012,03,30,11,26,6.90
2012,03,30,11,27,6.90
2012,03,30,11,28,7.00
2012,03,30,11,29,7.00
2012,03,30,11,30,7.00
2012,03,30,11,31,7.00
2012,03,30,11,32,7.10
2012,03,30,11,33,7.10
2012,03,30,11,34,7.10
2012,03,30,11,35,7.10
2012,03,30,11,36,7.10
2012,03,30,11,37,7.10
2012,03,30,11,38,7.20
2012,03,30,11,39,7.10
2012,03,30,11,40,7.20
2012,03,30,11,41,7.20
2012,03,30,11,42,7.20
2012,03,30,11,43,7.20
2012,03,30,11,44,7.20
2012,03,30,11,45,7.20
2012,03,30,11,46,7.20
2012,03,30,11,47,7.30
2012,03,30,11,48,7.30
2012,03,30,11,49,7.30
2012,03,30,11,50,7.30
2012,03,30,11,51,7.40
2012,03,30,11,52,7.40
2012,03,30,11,53,7.40
2012,03,30,11,54,7.40
2012,03,30,11,55,7.40
2012,03,30,11,56,7.50
2012,03,30,11,57,7.50
2012,03,30,11,58,7.50
2012,03,30,11,59,7.60
2012,03,30,12,00,7.60
2012,03,30,12,01,7.70
2012,03,30,12,02,7.70
2012,03,30,12,03,7.70
2012,03,30,12,04,7.70
2012,03,30,12,05,7.70
2012,03,30,12,06,7.80
2012,03,30,12,07,7.80
2012,03,30,12,08,7.80
2012,03,30,12,09,7.80
2012,03,30,12,10,7.80
2012,03,30,12,11,7.80
2012,03,30,12,12,7.90
2012,03,30,12,13,7.90
2012,03,30,12,14,7.90
2012,03,30,12,15,8.00
2012,03,30,12,16,8.00
2012,03,30,12,17,8.00
2012,03,30,12,18,8.10
2012,03,30,12,19,8.10
2012,03,30,12,20,8.10
2012,03,30,12,21,8.10
2012,03,30,12,22,8.10
2012,03,30,12,23,8.10
2012,03,30,12,24,8.20
2012,03,30,12,25,8.20
2012,03,30,12,26,8.30
2012,03,30,12,27,8.30
2012,03,30,12,28,8.30
2012,03,30,12,29,8.40
2012,03,30,12,30,8.40
2012,03,30,12,31,8.40
2012,03,30,12,32,8.40
2012,03,30,12,33,8.50
2012,03,30,12,34,8.50
2012,03,30,12,35,8.50
2012,03,30,12,36,8.50
2012,03,30,12,37,8.60
2012,03,30,12,38,8.50
2012,03,30,12,39,8.50
2012,03,30,12,40,8.50
2012,03,30,12,41,8.50
2012,03,30,12,42,8.50
2012,03,30,12,43,8.40
2012,03,30,12,44,8.40
2012,03,30,12,45,8.40
2012,03,30,12,46,8.30
2012,03,30,12,47,8.30
2012,03,30,12,48,8.20
2012,03,30,12,49,8.20
2012,03,30,12,50,8.20
2012,03,30,12,51,8.10
2012,03,30,12,52,8.00
2012,03,30,12,53,8.00
2012,03,30,12,54,8.00
2012,03,30,12,55,7.90
2012,03,30,12,56,7.90
2012,03,30,12,57,7.90
2012,03,30,12,58,7.80
2012,03,30,12,59,7.80
2012,03,30,13,00,7.80
2012,03,30,13,01,7.80
2012,03,30,13,02,7.80
2012,03,30,13,03,7.70
2012,03,30,13,04,7.70
2012,03,30,13,05,7.70
2012,03,30,13,06,7.70
2012,03,30,13,07,7.60
2012,03,30,13,08,7.60
2012,03,30,13,09,7.50
2012,03,30,13,10,7.40
2012,03,30,13,11,7.40
2012,03,30,13,12,7.30
2012,03,30,13,13,7.30
2012,03,30,13,14,7.20
2012,03,30,13,15,7.20
2012,03,30,13,16,7.20
2012,03,30,13,17,7.20
2012,03,30,13,18,7.10
2012,03,30,13,19,7.10
2012,03,30,13,20,7.00
2012,03,30,13,21,7.00
2012,03,30,13,22,6.90
2012,03,30,13,23,6.90
2012,03,30,13,24,6.80
2012,03,30,13,25,6.80
2012,03,30,13,26,6.70
2012,03,30,13,27,6.70
2012,03,30,13,28,6.70
2012,03,30,13,29,6.60
2012,03,30,13,30,6.60
2012,03,30,13,31,6.60
2012,03,30,13,32,6.50
2012,03,30,13,33,6.50
2012,03,30,13,34,6.40
2012,03,30,13,35,6.40
2012,03,30,13,36,6.30
2012,03,30,13,37,6.30
2012,03,30,13,38,6.20
2012,03,30,13,39,6.10
2012,03,30,13,40,6.10
2012,03,30,13,41,6.00
2012,03,30,13,42,6.00
2012,03,30,13,43,5.90
2012,03,30,13,44,5.90
2012,03,30,13,45,5.90
2012,03,30,13,46,5.80
2012,03,30,13,47,5.80
2012,03,30,13,48,5.80
2012,03,30,13,49,5.80
2012,03,30,13,50,5.80
2012,03,30,13,51,5.70
2012,03,30,13,52,5.70
2012,03,30,13,53,5.70
2012,03,30,13,54,5.60
2012,03,30,13,55,5.60
2012,03,30,13,56,5.50
2012,03,30,13,57,5.50
2012,03,30,13,58,5.40
2012,03,30,13,59,5.30
2012,03,30,14,00,5.30
2012,03,30,14,01,5.30
2012,03,30,14,02,5.20
2012,03,30,14,03,5.20
2012,03,30,14,04,5.20
2012,03,30,14,05,5.10
2012,03,30,14,06,5.10
2012,03,30,14,07,5.10
2012,03,30,14,08,5.10
2012,03,30,14,09,5.10
2012,03,30,14,10,5.10
2012,03,30,14,11,5.10
2012,03,30,14,12,5.10
2012,03,30,14,13,5.10
2012,03,30,14,14,5.10
2012,03,30,14,15,5.10
2012,03,30,14,16,5.20
2012,03,30,14,17,5.10
2012,03,30,14,18,5.10
2012,03,30,14,19,5.10
2012,03,30,14,20,5.10
2012,03,30,14,21,5.10
2012,03,30,14,22,5.10
2012,03,30,14,23,5.10
2012,03,30,14,24,5.10
2012,03,30,14,25,5.10
2012,03,30,14,26,5.10
2012,03,30,14,27,5.10
2012,03,30,14,28,5.00
2012,03,30,14,29,5.00
2012,03,30,14,30,5.00
2012,03,30,14,31,5.00
2012,03,30,14,32,4.90
2012,03,30,14,33,4.90
2012,03,30,14,34,4.90
2012,03,30,14,35,4.90
2012,03,30,14,36,4.80
2012,03,30,14,37,4.80
2012,03,30,14,38,4.80
2012,03,30,14,39,4.80
2012,03,30,14,40,4.80
2012,03,30,14,41,4.70
2012,03,30,14,42,4.70
2012,03,30,14,43,4.70
2012,03,30,14,44,4.70
2012,03,30,14,45,4.70
2012,03,30,14,46,4.60
2012,03,30,14,47,4.60
2012,03,30,14,48,4.60
2012,03,30,14,49,4.60
2012,03,30,14,50,4.60
2012,03,30,14,51,4.60
2012,03,30,14,52,4.60
2012,03,30,14,53,4.60
2012,03,30,14,54,4.60
2012,03,30,14,55,4.60
2012,03,30,14,56,4.50
2012,03,30,14,57,4.50
2012,03,30,14,58,4.50
2012,03,30,14,59,4.60
2012,03,30,15,00,4.60
2012,03,30,15,01,4.60
2012,03,30,15,02,4.60
2012,03,30,15,03,4.60
2012,03,30,15,04,4.60
2012,03,30,15,05,4.60
2012,03,30,15,06,4.70
2012,03,30,15,07,4.70
2012,03,30,15,08,4.70
2012,03,30,15,09,4.70
2012,03,30,15,10,4.70
2012,03,30,15,11,4.70
2012,03,30,15,12,4.70
2012,03,30,15,13,4.70
2012,03,30,15,14,4.70
2012,03,30,15,15,4.70
2012,03,30,15,16,4.70
2012,03,30,15,17,4.70
2012,03,30,15,18,4.70
2012,03,30,15,19,4.70
2012,03,30,15,20,4.70
2012,03,30,15,21,4.70
2012,03,30,15,22,4.70
2012,03,30,15,23,4.70
2012,03,30,15,24,4.70
2012,03,30,15,25,4.70
2012,03,30,15,26,4.70
2012,03,30,15,27,4.70
2012,03,30,15,28,4.70
2012,03,30,15,29,4.70
2012,03,30,15,30,4.70
2012,03,30,15,31,4.70
2012,03,30,15,32,4.70
2012,03,30,15,33,4.70
2012,03,30,15,34,4.80
2012,03,30,15,35,4.80
2012,03,30,15,36,4.80
2012,03,30,15,37,4.80
2012,03,30,15,38,4.80
2012,03,30,15,39,4.80
2012,03,30,15,40,4.80
2012,03,30,15,41,4.80
2012,03,30,15,42,4.80
2012,03,30,15,43,4.80
2012,03,30,15,44,4.80
2012,03,30,15,45,4.80
2012,03,30,15,46,4.90
2012,03,30,15,47,4.90
2012,03,30,15,48,4.90
2012,03,30,15,49,4.90
2012,03,30,15,50,5.00
2012,03,30,15,51,5.10
2012,03,30,15,52,5.20
2012,03,30,15,53,5.20
2012,03,30,15,54,5.30
2012,03,30,15,55,5.40
2012,03,30,15,56,5.40
2012,03,30,15,57,5.50
2012,03,30,15,58,5.50
2012,03,30,15,59,5.60
2012,03,30,16,00,5.70
2012,03,30,16,01,5.70
2012,03,30,16,02,5.80
2012,03,30,16,03,5.80
2012,03,30,16,04,5.80
2012,03,30,16,05,5.90
2012,03,30,16,06,5.90
2012,03,30,16,07,5.90
2012,03,30,16,08,6.00
2012,03,30,16,09,6.00
2012,03,30,16,10,6.00
2012,03,30,16,11,6.00
2012,03,30,16,12,5.90
2012,03,30,16,13,5.90
2012,03,30,16,14,5.90
2012,03,30,16,15,5.90
2012,03,30,16,16,6.00
2012,03,30,16,17,6.00
2012,03,30,16,18,6.00
2012,03,30,16,19,5.90
2012,03,30,16,20,5.90
2012,03,30,16,21,5.90
2012,03,30,16,22,5.90
2012,03,30,16,23,5.90
2012,03,30,16,24,5.90
2012,03,30,16,25,5.90
2012,03,30,16,26,5.90
2012,03,30,16,27,5.90
2012,03,30,16,28,5.90
2012,03,30,16,29,5.90
2012,03,30,16,30,5.90
2012,03,30,16,31,6.00
2012,03,30,16,32,6.00
2012,03,30,16,33,6.00
2012,03,30,16,34,6.10
2012,03,30,16,35,6.10
2012,03,30,16,36,6.10
2012,03,30,16,37,6.20
2012,03,30,16,38,6.20
2012,03,30,16,39,6.20
2012,03,30,16,40,6.30
2012,03,30,16,41,6.30
2012,03,30,16,42,6.30
2012,03,30,16,43,6.30
2012,03,30,16,44,6.30
2012,03,30,16,45,6.30
2012,03,30,16,46,6.40
2012,03,30,16,47,6.50
2012,03,30,16,48,6.40
2012,03,30,16,49,6.40
2012,03,30,16,50,6.40
2012,03,30,16,51,6.40
2012,03,30,16,52,6.40
2012,03,30,16,53,6.40
2012,03,30,16,54,6.40
2012,03,30,16,55,6.40
2012,03,30,16,56,6.50
2012,03,30,16,57,6.60
2012,03,30,16,58,6.70
2012,03,30,16,59,6.80
2012,03,30,17,00,6.90
2012,03,30,17,01,7.00
2012,03,30,17,02,7.00
2012,03,30,17,03,7.10
2012,03,30,17,04,7.20
2012,03,30,17,05,7.20
2012,03,30,17,06,7.30
2012,03,30,17,07,7.40
2012,03,30,17,08,7.40
2012,03,30,17,09,7.40
2012,03,30,17,10,7.40
2012,03,30,17,11,7.30
2012,03,30,17,12,7.20
2012,03,30,17,13,7.20
2012,03,30,17,14,7.10
2012,03,30,17,15,7.00
2012,03,30,17,16,6.90
2012,03,30,17,17,6.80
2012,03,30,17,18,6.80
2012,03,30,17,19,6.70
2012,03,30,17,20,6.70
2012,03,30,17,21,6.60
2012,03,30,17,22,6.70
2012,03,30,17,23,6.70
2012,03,30,17,24,6.70
2012,03,30,17,25,6.80
2012,03,30,17,26,6.80
2012,03,30,17,27,6.80
2012,03,30,17,28,6.80
2012,03,30,17,29,6.90
2012,03,30,17,30,6.90
2012,03,30,17,31,6.90
2012,03,30,17,32,7.00
2012,03,30,17,33,7.00
2012,03,30,17,34,7.00
2012,03,30,17,35,7.00
2012,03,30,17,36,7.10
2012,03,30,17,37,7.10
2012,03,30,17,38,7.10
2012,03,30,17,39,7.10
2012,03,30,17,40,7.10
2012,03,30,17,41,7.10
2012,03,30,17,42,7.20
2012,03,30,17,43,7.20
2012,03,30,17,44,7.20
2012,03,30,17,45,7.20
2012,03,30,17,46,7.20
2012,03,30,17,47,7.20
2012,03,30,17,48,7.20
2012,03,30,17,49,7.20
2012,03,30,17,50,7.20
2012,03,30,17,51,7.20
2012,03,30,17,52,7.20
2012,03,30,17,53,7.20
2012,03,30,17,54,7.10
2012,03,30,17,55,7.10
2012,03,30,17,56,7.10
2012,03,30,17,57,7.10
2012,03,30,17,58,7.10
2012,03,30,17,59,7.00
2012,03,30,18,00,7.00
2012,03,30,18,01,7.00
2012,03,30,18,02,7.00
2012,03,30,18,03,7.00
2012,03,30,18,04,7.00
2012,03,30,18,05,6.90
2012,03,30,18,06,6.90